Weather History for LKPR - May, 2012

Change the Weather History Date:

Friday, May 18, 2012

  Actual Average Record
Temperature  
Mean Temperature 46 °F -  
Max Temperature 60 °F 69 °F 78 °F (1997)
Min Temperature 33 °F 49 °F 33 °F (2012)
Degree Days  
Heating Degree Days 18    
Moisture  
Dew Point 30 °F    
Average Humidity 50    
Maximum Humidity 75    
Minimum Humidity 24    
Precipitation  
Precipitation 0.00 in 0.10 in - ()
Sea Level Pressure  
Sea Level Pressure 30.02 in    
Wind  
Wind Speed 7 mph ()    
Max Wind Speed 17 mph    
Max Gust Speed -    
Averages and records for this station are not official NWS values.
T = Trace of Precipitation, MM = Missing Value Source: Averaged Metar Reports

Daily Weather History Graph

Daily Weather History Graph

Search for Another Location

Airport or City:

Trip Planner

Search our weather history database for the weather conditions in past years. The results will help you decide how hot, cold, wet, or windy it might be!

Date:

Astronomy

May. 18, 2012 Rise Set
Actual Time 5:12 AM CEST 8:47 PM CEST
Civil Twilight 4:32 AM CEST 9:27 PM CEST
Nautical Twilight 3:37 AM CEST 10:22 PM CEST
Astronomical Twilight 2:21 AM CEST 11:41 PM CEST
Moon 3:44 AM CEST (5/18) 6:31 PM CEST (5/18)
Length of Visible Light 16h 55m
Length of Day
15h 35m
Waning Crescent, 6% of the Moon is Illuminated
May 18
Waning Crescent
May 21
New
May 28
First Quarter
Jun 4
Full
Jun 11
Last Quarter

Hourly Weather History & Observations

Time (CEST) Temp. Windchill Dew Point Humidity Pressure Visibility Wind Dir Wind Speed Gust Speed Precip Events Conditions
12:00 AM 41.0 °F 37.1 °F 28.4 °F 61% 30.09 in - SE 5.8 mph - N/A   Clear
12:30 AM 41.0 °F 37.1 °F 28.4 °F 61% 30.09 in - SE 5.8 mph - N/A   Clear
1:00 AM 39.2 °F 35.9 °F 28.4 °F 65% 30.09 in - South 4.6 mph - N/A   Clear
1:30 AM 37.4 °F 32.8 °F 28.4 °F 70% 30.09 in - South 5.8 mph - N/A   Clear
2:00 AM 38 °F - 28 °F 57% 30.14 in 31 mi South 4.5 mph - -   Clear
2:00 AM 37.4 °F 33.8 °F 28.4 °F 70% 30.09 in - South 4.6 mph - N/A   Clear
2:30 AM 37.4 °F 32.8 °F 28.4 °F 70% 30.09 in - SSE 5.8 mph - N/A   Clear
3:00 AM 35.6 °F 31.7 °F 26.6 °F 70% 30.06 in - SSE 4.6 mph - N/A   Clear
3:30 AM 37.4 °F 33.8 °F 26.6 °F 65% 30.06 in - SSE 4.6 mph - N/A   Clear
4:00 AM 37.4 °F 33.8 °F 26.6 °F 65% 30.06 in - SSE 4.6 mph - N/A   Clear
4:30 AM 35.6 °F 29.9 °F 26.6 °F 70% 30.06 in - SSE 6.9 mph - N/A   Clear
5:00 AM 33.8 °F 27.7 °F 26.6 °F 75% 30.06 in - SSE 6.9 mph - N/A   Clear
5:30 AM 33.8 °F 27.7 °F 26.6 °F 75% 30.06 in - SSE 6.9 mph - N/A   Clear
6:00 AM 35.6 °F 29.9 °F 28.4 °F 75% 30.06 in - SSE 6.9 mph - N/A   Clear
6:30 AM 37.4 °F 32.1 °F 28.4 °F 70% 30.06 in - SSE 6.9 mph - N/A   Clear
7:00 AM 39.2 °F 34.2 °F 30.2 °F 70% 30.06 in - SSE 6.9 mph - N/A   Clear
7:30 AM 42.8 °F 37.5 °F 30.2 °F 61% 30.06 in - SE 9.2 mph - N/A   Clear
8:00 AM 45 °F - 29 °F 41% 30.09 in 31 mi SE 8.9 mph - -   Scattered Clouds
8:00 AM 44.6 °F 40.2 °F 28.4 °F 53% 30.04 in - SE 8.1 mph - N/A   Clear
8:30 AM 46.4 °F 41.5 °F 30.2 °F 53% 30.04 in - ESE 10.4 mph - N/A   Clear
9:00 AM 48.2 °F - 30.2 °F 50% 30.04 in - ESE 12.7 mph - N/A   Clear
9:30 AM 50.0 °F - 26.6 °F 40% 30.04 in - ESE 17.3 mph - N/A   Clear
10:00 AM 51.8 °F - 26.6 °F 38% 30.04 in - ESE 16.1 mph - N/A   Clear
10:30 AM 51.8 °F - 24.8 °F 35% 30.04 in - SE 17.3 mph - N/A   Clear
11:00 AM 50.0 °F - 24.8 °F 37% 30.01 in - ESE 16.1 mph - N/A   Clear
11:30 AM 51.8 °F - 28.4 °F 41% 30.01 in - SE 12.7 mph - N/A   Clear
12:00 PM 53.6 °F - 28.4 °F 38% 30.01 in - SE 13.8 mph - N/A   Clear
12:30 PM 53.6 °F - 28.4 °F 38% 30.01 in - ESE 13.8 mph - N/A   Clear
1:00 PM 57.2 °F - 32.0 °F 38% 29.98 in - ESE 13.8 mph - N/A   Clear
1:30 PM 57.2 °F - 32.0 °F 38% 29.98 in - SE 10.4 mph - N/A   Clear
2:00 PM 58 °F - 31 °F 24% 29.98 in 37 mi SE 8.9 mph - -   Partly Cloudy
2:00 PM 57.2 °F - 32.0 °F 38% 29.98 in - ESE 11.5 mph - N/A   Clear
2:30 PM 57.2 °F - 30.2 °F 36% 29.98 in - ESE 10.4 mph - N/A   Clear
3:00 PM 57.2 °F - 32.0 °F 38% 29.98 in - SSE 11.5 mph - N/A   Clear
3:30 PM 57.2 °F - 32.0 °F 38% 29.98 in - SE 10.4 mph - N/A   Clear
4:00 PM 59.0 °F - 30.2 °F 34% 29.95 in - SSE 10.4 mph - N/A   Clear
4:30 PM 57.2 °F - 32.0 °F 38% 29.95 in - SSE 11.5 mph - N/A   Clear
5:00 PM 59.0 °F - 32.0 °F 36% 29.95 in - ESE 10.4 mph - N/A   Clear
5:30 PM 59.0 °F - 33.8 °F 39% 29.95 in - SE 9.2 mph - N/A   Clear
6:00 PM 59.0 °F - 33.8 °F 39% 29.95 in - SSE 13.8 mph - N/A   Clear
6:30 PM 59.0 °F - 33.8 °F 39% 29.95 in - SSE 10.4 mph - N/A   Clear
7:00 PM 59.0 °F - 33.8 °F 39% 29.95 in - SSE 8.1 mph - N/A   Clear
7:30 PM 59.0 °F - 33.8 °F 39% 29.95 in - SSE 11.5 mph - N/A   Clear
8:00 PM 57 °F - 33 °F 28% 29.96 in 31 mi SSE 4.5 mph - -   Scattered Clouds
8:00 PM 57.2 °F - 33.8 °F 41% 29.95 in - SSE 8.1 mph - N/A   Clear
8:30 PM 55.4 °F - 33.8 °F 44% 29.95 in - SSE 6.9 mph - N/A   Clear
9:00 PM 53.6 °F - 33.8 °F 47% 29.95 in - SE 4.6 mph - N/A   Clear
9:30 PM 51.8 °F - 33.8 °F 50% 29.98 in - SE 6.9 mph - N/A   Clear
10:00 PM 48.2 °F - 33.8 °F 58% 29.98 in - SE 8.1 mph - N/A   Clear
10:30 PM 51.8 °F - 33.8 °F 50% 29.98 in - SSE 6.9 mph - N/A   Clear
11:00 PM 50.0 °F - 33.8 °F 54% 29.98 in - ESE 6.9 mph - N/A   Clear
11:30 PM 48.2 °F - 32.0 °F 54% 29.98 in - SE 6.9 mph - N/A   Clear